• In Deutschland
  • Länderverzeichnis
  • Für 7 Tage
  • Wassertemperatur
  • Satellitenkarten
  • Wetterkarte
  • Widgets
  • user-avatar
    Anmelden

    Stündliche Wetter Bagdarin

    Heute, 17 Juli, Dienstag

    Zeit Temperatur Niederschläge Wind Luftdruck Luftfeuchtigkeit
    00:00 +14°C° 0,1 mm 0 m/S 675 mmHg 92%
    01:00 +14°C° 0,1 mm 0 m/S 675 mmHg 93%
    02:00 +14°C° 0 mm 0 m/S 675 mmHg 94%
    03:00 +13°C° 0 mm 0 m/S 675 mmHg 94%
    04:00 +13°C° 0 mm 0 m/S 675 mmHg 94%
    05:00 +13°C° 0 mm 0 m/S 675 mmHg 95%
    06:00 +15°C° 0 mm 0 m/S 675 mmHg 89%
    07:00 +17°C° 0 mm 0 m/S 675 mmHg 84%
    08:00 +20°C° 0 mm 0 m/S 676 mmHg 77%
    09:00 +21°C° 0,2 mm 0 m/S 676 mmHg 72%
    10:00 +22°C° 0,2 mm 0 m/S 676 mmHg 66%
    11:00 +25°C° 0,2 mm 1 m/S 676 mmHg 61%
    12:00 +26°C° 0,3 mm 1 m/S 676 mmHg 58%
    13:00 +27°C° 0,3 mm 1 m/S 676 mmHg 55%
    14:00 +27°C° 0 mm 1 m/S 676 mmHg 53%
    15:00 +27°C° 0,3 mm 1 m/S 676 mmHg 54%
    16:00 +26°C° 0,3 mm 1 m/S 676 mmHg 55%
    17:00 +26°C° 0,3 mm 1 m/S 676 mmHg 56%
    18:00 +24°C° 0,4 mm 1 m/S 676 mmHg 65%
    19:00 +23°C° 0,4 mm 1 m/S 675 mmHg 74%
    20:00 +21°C° 0,4 mm 1 m/S 675 mmHg 82%
    21:00 +20°C° 0,2 mm 1 m/S 675 mmHg 85%
    22:00 +19°C° 0,2 mm 1 m/S 676 mmHg 88%
    23:00 +16°C° 0,2 mm 1 m/S 676 mmHg 91%

    Morgen, 18 Juli, Mittwoch

    Zeit Temperatur Niederschläge Wind Luftdruck Luftfeuchtigkeit
    00:00 +16°C° 0 mm 1 m/S 676 mmHg 92%
    01:00 +16°C° 0 mm 1 m/S 676 mmHg 93%
    02:00 +15°C° 0 mm 1 m/S 676 mmHg 94%
    03:00 +15°C° 0 mm 1 m/S 676 mmHg 94%
    04:00 +15°C° 0 mm 1 m/S 676 mmHg 94%
    05:00 +15°C° 0 mm 2 m/S 676 mmHg 94%
    06:00 +16°C° 0,1 mm 2 m/S 676 mmHg 90%
    07:00 +18°C° 0,1 mm 2 m/S 677 mmHg 86%
    08:00 +19°C° 0,1 mm 3 m/S 677 mmHg 82%
    09:00 +20°C° 0,3 mm 3 m/S 677 mmHg 78%
    10:00 +21°C° 0,3 mm 3 m/S 677 mmHg 74%
    11:00 +22°C° 0,3 mm 4 m/S 677 mmHg 71%
    12:00 +22°C° 0,3 mm 4 m/S 677 mmHg 69%
    13:00 +22°C° 0,3 mm 3 m/S 677 mmHg 68%
    14:00 +24°C° 0,3 mm 3 m/S 677 mmHg 67%
    15:00 +24°C° 0,5 mm 3 m/S 677 mmHg 69%
    16:00 +22°C° 0,5 mm 3 m/S 677 mmHg 72%
    17:00 +22°C° 0,5 mm 3 m/S 677 mmHg 75%
    18:00 +21°C° 0,4 mm 2 m/S 677 mmHg 80%
    19:00 +20°C° 0,4 mm 2 m/S 677 mmHg 86%
    20:00 +19°C° 0,4 mm 2 m/S 677 mmHg 92%
    21:00 +18°C° 0,1 mm 2 m/S 677 mmHg 93%
    22:00 +17°C° 0,1 mm 2 m/S 677 mmHg 95%
    23:00 +16°C° 0,1 mm 1 m/S 677 mmHg 97%

    übermorgen, 19 Juli, Donnerstag

    Zeit Temperatur Niederschläge Wind Luftdruck Luftfeuchtigkeit
    00:00 +16°C° 0 mm 1 m/S 677 mmHg 97%
    01:00 +16°C° 0 mm 1 m/S 677 mmHg 97%
    02:00 +16°C° 0 mm 1 m/S 677 mmHg 97%
    03:00 +16°C° 0 mm 1 m/S 678 mmHg 97%
    04:00 +16°C° 0 mm 1 m/S 678 mmHg 97%
    05:00 +15°C° 0 mm 1 m/S 678 mmHg 97%
    06:00 +16°C° 0 mm 1 m/S 678 mmHg 93%
    07:00 +18°C° 0 mm 1 m/S 678 mmHg 89%
    08:00 +18°C° 0 mm 1 m/S 678 mmHg 86%
    09:00 +20°C° 0 mm 1 m/S 678 mmHg 80%
    10:00 +21°C° 0 mm 1 m/S 678 mmHg 75%
    11:00 +22°C° 0 mm 1 m/S 679 mmHg 69%
    12:00 +23°C° 0,1 mm 2 m/S 678 mmHg 65%
    13:00 +25°C° 0,1 mm 2 m/S 678 mmHg 61%
    14:00 +26°C° 0,1 mm 2 m/S 678 mmHg 57%
    15:00 +25°C° 0,2 mm 2 m/S 678 mmHg 58%
    16:00 +25°C° 0,2 mm 2 m/S 677 mmHg 59%
    17:00 +25°C° 0,2 mm 2 m/S 677 mmHg 59%
    18:00 +24°C° 0,2 mm 2 m/S 677 mmHg 67%
    19:00 +23°C° 0,2 mm 2 m/S 677 mmHg 74%
    20:00 +21°C° 0,2 mm 1 m/S 677 mmHg 81%
    21:00 +20°C° 0 mm 1 m/S 676 mmHg 84%
    22:00 +18°C° 0 mm 1 m/S 676 mmHg 87%
    23:00 +16°C° 0 mm 1 m/S 676 mmHg 90%

    20 Juli, Freitag

    Zeit Temperatur Niederschläge Wind Luftdruck Luftfeuchtigkeit
    00:00 +15°C° 0 mm 1 m/S 676 mmHg 91%
    01:00 +15°C° 0 mm 1 m/S 676 mmHg 91%
    02:00 +14°C° 0 mm 1 m/S 675 mmHg 92%
    03:00 +14°C° 0 mm 1 m/S 675 mmHg 92%
    04:00 +14°C° 0 mm 1 m/S 675 mmHg 93%
    05:00 +14°C° 0 mm 1 m/S 675 mmHg 93%
    06:00 +16°C° 0 mm 1 m/S 675 mmHg 87%
    07:00 +18°C° 0 mm 1 m/S 675 mmHg 81%
    08:00 +20°C° 0 mm 1 m/S 675 mmHg 75%
    09:00 +20°C° 0 mm 2 m/S 675 mmHg 71%
    10:00 +21°C° 0 mm 3 m/S 675 mmHg 66%
    11:00 +22°C° 0 mm 4 m/S 675 mmHg 61%
    12:00 +21°C° 0,1 mm 4 m/S 675 mmHg 64%
    13:00 +21°C° 0,1 mm 4 m/S 675 mmHg 66%
    14:00 +21°C° 0,1 mm 4 m/S 675 mmHg 68%
    15:00 +20°C° 0,2 mm 4 m/S 674 mmHg 74%
    16:00 +20°C° 0,2 mm 3 m/S 674 mmHg 79%
    17:00 +19°C° 0,2 mm 3 m/S 674 mmHg 84%
    18:00 +19°C° 0,2 mm 3 m/S 674 mmHg 87%
    19:00 +18°C° 0,2 mm 3 m/S 673 mmHg 89%
    20:00 +18°C° 0,2 mm 3 m/S 673 mmHg 92%
    21:00 +18°C° 0,1 mm 2 m/S 673 mmHg 93%
    22:00 +17°C° 0,1 mm 2 m/S 673 mmHg 95%
    23:00 +17°C° 0,1 mm 2 m/S 673 mmHg 96%

    21 Juli, Samstag

    Zeit Temperatur Niederschläge Wind Luftdruck Luftfeuchtigkeit
    00:00 +18°C° 0,1 mm 1 m/S 672 mmHg 97%
    01:00 +16°C° 0,1 mm 1 m/S 672 mmHg 97%
    02:00 +16°C° 0,1 mm 1 m/S 672 mmHg 98%
    03:00 +16°C° 0,1 mm 1 m/S 671 mmHg 98%
    04:00 +16°C° 0,1 mm 1 m/S 671 mmHg 98%
    05:00 +16°C° 0,1 mm 1 m/S 670 mmHg 98%
    06:00 +17°C° 0,2 mm 2 m/S 670 mmHg 96%
    07:00 +17°C° 0,2 mm 2 m/S 670 mmHg 94%
    08:00 +18°C° 0,2 mm 2 m/S 670 mmHg 93%
    09:00 +19°C° 0,9 mm 2 m/S 670 mmHg 92%
    10:00 +19°C° 0,9 mm 2 m/S 670 mmHg 92%
    11:00 +19°C° 0,9 mm 2 m/S 670 mmHg 91%
    12:00 +20°C° 0,7 mm 2 m/S 669 mmHg 91%
    13:00 +20°C° 0,7 mm 2 m/S 669 mmHg 91%
    14:00 +20°C° 0,7 mm 3 m/S 668 mmHg 90%
    15:00 +21°C° 0,3 mm 3 m/S 668 mmHg 87%
    16:00 +21°C° 0,3 mm 3 m/S 668 mmHg 84%
    17:00 +21°C° 0,3 mm 3 m/S 668 mmHg 80%
    18:00 +20°C° 1,2 mm 3 m/S 668 mmHg 84%
    19:00 +19°C° 1,2 mm 3 m/S 668 mmHg 88%
    20:00 +18°C° 1,2 mm 2 m/S 668 mmHg 92%
    21:00 +18°C° 0,7 mm 2 m/S 668 mmHg 93%
    22:00 +17°C° 0,7 mm 2 m/S 668 mmHg 94%
    23:00 +17°C° 0,7 mm 2 m/S 668 mmHg 95%

    22 Juli, Sonntag

    Zeit Temperatur Niederschläge Wind Luftdruck Luftfeuchtigkeit
    00:00 +16°C° 0,4 mm 2 m/S 668 mmHg 96%
    01:00 +16°C° 0,4 mm 2 m/S 668 mmHg 96%
    02:00 +16°C° 0,4 mm 2 m/S 668 mmHg 96%
    03:00 +15°C° 0,1 mm 2 m/S 668 mmHg 96%
    04:00 +15°C° 0,1 mm 2 m/S 668 mmHg 96%
    05:00 +15°C° 0,1 mm 2 m/S 668 mmHg 96%
    06:00 +16°C° 0,1 mm 3 m/S 668 mmHg 92%
    07:00 +17°C° 0,1 mm 3 m/S 669 mmHg 87%
    08:00 +17°C° 0,1 mm 4 m/S 669 mmHg 82%
    09:00 +18°C° 0 mm 4 m/S 670 mmHg 78%
    10:00 +18°C° 0 mm 4 m/S 670 mmHg 75%
    11:00 +19°C° 0 mm 4 m/S 670 mmHg 71%
    12:00 +19°C° 0 mm 4 m/S 671 mmHg 70%
    13:00 +19°C° 0 mm 4 m/S 671 mmHg 68%
    14:00 +20°C° 0 mm 4 m/S 672 mmHg 67%
    15:00 +20°C° 0 mm 4 m/S 672 mmHg 67%
    16:00 +20°C° 0 mm 4 m/S 673 mmHg 66%
    17:00 +21°C° 0 mm 4 m/S 673 mmHg 65%
    18:00 +19°C° 0 mm 3 m/S 674 mmHg 69%
    19:00 +18°C° 0 mm 3 m/S 674 mmHg 74%
    20:00 +17°C° 0 mm 2 m/S 674 mmHg 79%
    21:00 +15°C° 0 mm 2 m/S 675 mmHg 82%
    22:00 +14°C° 0 mm 2 m/S 675 mmHg 86%
    23:00 +13°C° 0 mm 2 m/S 675 mmHg 89%
    Mehr zeigen